"Pseudo-MPEC" for ZTF09oZ

Created 2020 Jan 15 19:07:13 UT using Find_Orb

Click here for an explanation of pseudo-MPECs

 
 Astrometry: 
     ZTF09oZ tC2020 01 145q-$99q@AstrometryU1p[OM^R_7KtS2u*^redacted;v:5x:$I!246
     ZTF09oZ tC2020 01 14(bnS(IdR^9CE?Zp9g\hqclickAkG[yO*HQfhere0E?mI)Eaw%*Bx246
     ZTF09oZ tC2020 01 14?mk`OZ2JKY_Q35[for5@!F?@mhIl*r4CJ-jH?vZDGexplanation246

Station data:
(246) Klet Observatory-KLENOT  (N48.863293 E14.288100)  Czech Republic.
   1.06-m KLENOT telescope.

Orbital elements:  ZTF09oZ
   Perigee 2020 Jan 15.831580 +/- 60.8 TT = 19:57:28 (JD 2458864.331580)
Epoch 2020 Jan 15.0 TT = JDT 2458863.5                        AutoNEOCP
q 40257.9667 +/- 4.68e+7            (J2000 equator)
H   30.8  G 0.15                    Peri.  150.09198 +/- 80
                                    Node   120.92623 +/- 57
e   1.6750982 +/- 0.224             Incl.  149.23112 +/- 55
From 3 observations 2020 Jan. 14 (70.8 sec); mean residual 0".60
Residuals in arcseconds: 
200114 246  .32+  .10-    200114 246  1.1-  .36+    200114 246  .78+  .25-    

Ephemerides (geocentric):
Date (UTC) HH   RA              Dec         delta   r     elong  mag " sig PA
---- -- -- --  -------------   -----------  ------ ------ -----  --- ---- ---
2020 01 15 19  23 21 47.995   +24 21 31.32   42535 .98348  69.3 17.3  19d 175
2020 01 15 20  21 42 57.154   +14 01 11.86   40273 .98340  45.2 19??  22d 174
2020 01 15 21  20 14 41.398   +01 37 32.91   43148 .98333  23.7 22??  25d 173
2020 01 15 22  19 05 32.963   -08 30 28.94   50130 .98327  16.2 25??  26d 171
2020 01 15 23  18 13 46.071   -15 22 13.53   59528 .98323  23.0 23??  27d 170
2020 01 16 00  17 34 56.292   -19 47 57.03   70154 .98320  31.1 22??  87d 178
2020 01 16 01  17 05 16.285   -22 41 42.39   81367 .98317  37.7 21?? 154d 179
2020 01 16 02  16 42 04.489   -24 38 59.45   92844 .98315  42.8 21?? 105d   0
2020 01 16 03  16 23 31.406   -26 00 54.56  104424 .98313  46.9 21??  82d   1
2020 01 16 04  16 08 22.917   -26 59 57.20  116021 .98311  50.2 20??  75d   1
2020 01 16 05  15 55 48.082   -27 43 41.76  127592 .98310  53.0 20??  69d   2
2020 01 16 06  15 45 11.145   -28 16 52.65  139115 .98309  55.3 20??  68d   2
2020 01 16 07  15 36 06.449   -28 42 33.75  150578 .98307  57.2 20??  61d   3
2020 01 16 08  15 28 15.192   -29 02 47.59  161977 .98306  58.9 20??  60d   3
2020 01 16 09  15 21 23.315   -29 18 58.10  173309 .98305  60.4 20.9  60d   3
2020 01 16 10  15 15 20.119   -29 32 04.17  184577 .98304  61.7 20.9  59d   3
2020 01 16 11  15 09 57.325   -29 42 48.09  195781 .98303  62.9 21.0  59d   3
2020 01 16 12  15 05 08.431   -29 51 40.77  206925 .98302  63.9 21.0  59d   3
2020 01 16 13  15 00 48.263   -29 59 05.23  218010 .98302  64.9 21.1  64d   2
2020 01 16 14  14 56 52.653   -30 05 18.90  229041 .98301  65.7 21.1  64d   3
2020 01 16 15  14 53 18.205   -30 10 35.13  240019 .98300  66.5 21.2  64d   3
2020 01 16 16  14 50 02.128   -30 15 04.31  250947 .98300  67.2 21.2  63d   3
2020 01 16 17  14 47 02.101   -30 18 54.58  261829 .98299  67.9 21.3  63d   3
2020 01 16 18  14 44 16.184   -30 22 12.42  272666 .98298  68.5 21.3  63d   3
2020 01 16 19  14 41 42.738   -30 25 03.04  283460 .98298  69.1 21.4  62d   3
2020 01 16 20  14 39 20.373   -30 27 30.63  294214 .98297  69.6 21.4  62d   3
2020 01 16 21  14 37 07.899   -30 29 38.63  304931 .98297  70.1 21.5  67d   3
2020 01 16 22  14 35 04.292   -30 31 29.86  315610 .98296  70.6 21.5  67d   3
2020 01 16 23  14 33 08.667   -30 33 06.65  326255 .98296  71.0 21.6  67d   3
2020 01 17 00  14 31 20.254   -30 34 30.95  336868 .98295  71.4 21.6  66d   3
2020 01 17 01  14 29 38.381   -30 35 44.40  347448 .98295  71.8 21.7  66d   3
2020 01 17 02  14 28 02.458   -30 36 48.38  357998 .98294  72.2 21.7  71d   2
2020 01 17 03  14 26 31.964   -30 37 44.07  368519 .98294  72.5 21.7  71d   3
2020 01 17 04  14 25 06.439   -30 38 32.47  379013 .98294  72.9 21.8  70d   3
2020 01 17 05  14 23 45.476   -30 39 14.46  389479 .98293  73.2 21.8  70d   3
2020 01 17 06  14 22 28.710   -30 39 50.79  399920 .98293  73.5 21.9  70d   3
2020 01 17 07  14 21 15.815   -30 40 22.11  410336 .98293  73.8 21.9  70d   3
2020 01 17 08  14 20 06.501   -30 40 49.00  420729 .98292  74.1 22.0  74d   3
2020 01 17 09  14 19 00.503   -30 41 11.96  431098 .98292  74.3 22.0  74d   3
2020 01 17 10  14 17 57.584   -30 41 31.43  441445 .98292  74.6 22.0  74d   3
2020 01 17 11  14 16 57.532   -30 41 47.81  451771 .98291  74.8 22.1  74d   3
2020 01 17 12  14 16 00.150   -30 42 01.44  462076 .98291  75.1 22.1  73d   3
2020 01 17 13  14 15 05.261   -30 42 12.64  472362 .98291  75.3 22.1  73d   3
2020 01 17 14  14 14 12.704   -30 42 21.68  482627 .98291  75.5 22.2  73d   3
2020 01 17 15  14 13 22.332   -30 42 28.81  492874 .98291  75.7 22.2  73d   3
2020 01 17 16  14 12 34.008   -30 42 34.24  503103 .98290  75.9 22.2  77d   3
2020 01 17 17  14 11 47.609   -30 42 38.17  513315 .98290  76.1 22.3  77d   3
2020 01 17 18  14 11 03.020   -30 42 40.77  523509 .98290  76.3 22.3  77d   3